Flag for Germany Weather past 2 weeks in Zittau, Saxony, Germany

Now
60 °F

Fog.


Feels Like: 60 °F
Forecast: 56 / 78 °F
Wind: 2 mph from Northwest

Location: Liberec

Current Time: Jul 24, 2014 at 10:57:53 PM

Latest Report: Jul 24, 2014 at 10:00 PM


Visibility: 5 mi

Pressure: 29.89 "Hg

Humidity: 100%

Dew point: 60 °F

Location of ZittauLocation

Historic Weather in Zittau — Graph

°F

Zittau temperature yesterday

Maximum temperature yesterday: 80 °F (at 6:00 PM)
Minimum temperature yesterday: 53 °F (at 5:00 AM)
Average temperature yesterday: 67 °F

Past Weeks' High & Low Weather Summary

 TemperatureHumidityPressure
High89 °F (Jul 20, 5:00 PM)100% (Jul 11, 2:00 AM)30.19 "Hg (Jul 11, 2:00 AM)
Low46 °F (Jul 13, 5:00 AM)29% (Jul 23, 6:00 PM)29.70 "Hg (Jul 10, 5:00 AM)
Average67 °F74%29.93 "Hg
* Reported Jul 9 9:00 PM — Jul 24 9:00 PM, Zittau, Weather by CustomWeather, © 2014

Note: Actual official high and low records may vary slightly from our data, if they occured in-between our weather recording intervals... More about our weather records

Advertising

Zittau weather history for previous 24 hours

 ConditionsComfort  
Time TempWeatherWind HumidityBarometerVisibility
9:00 PM
Jul 24
60 °FFog.2 mph99%29.88 "Hg4 mi
8:00 PM61 °FLow clouds.2 mph98%29.88 "Hg6 mi
7:00 PM61 °FFog.2 mph97%29.88 "Hg6 mi
6:00 PM60 °FDrizzle. Cloudy.1 mph97%29.89 "Hg8 mi
5:00 PM61 °FRain. Low clouds.2 mph97%29.90 "Hg4 mi
4:00 PM61 °FRain. Low clouds.6 mph97%29.90 "Hg3 mi
3:00 PM61 °FRain. Low clouds.5 mph95%29.92 "Hg2 mi
2:00 PM63 °FOvercast.2 mph85%29.92 "Hg6 mi
1:00 PM64 °FOvercast.2 mph82%29.93 "Hg12 mi
12:00 PM62 °FLight rain. Overcast.2 mph88%29.94 "Hg6 mi
11:00 AM62 °FOvercast.1 mph83%29.95 "Hg9 mi
10:00 AM61 °FOvercast.1 mph89%29.95 "Hg9 mi
9:00 AM59 °FOvercast.3 mph93%29.96 "Hg9 mi
8:00 AM58 °FOvercast.5 mph95%29.96 "Hg8 mi
7:00 AM56 °FCool.3 mph99%29.97 "Hg3 mi
6:00 AM54 °FFog.1 mph99%29.97 "Hg1 mi
5:00 AM55 °FFog.1 mph98%29.98 "Hg2 mi
4:00 AM56 °FFog.2 mph97%29.97 "Hg4 mi
3:00 AM56 °FCool.2 mph95%29.97 "Hg6 mi
2:00 AM59 °FCool.2 mph88%29.97 "Hg12 mi
1:00 AM58 °FCool.3 mph85%29.99 "Hg12 mi
12:00 AM59 °FCool.3 mph81%30.00 "Hg12 mi
11:00 PM
Jul 23
61 °FCool.1 mph76%29.99 "Hg12 mi
10:00 PM63 °FPassing clouds.1 mph68%29.98 "Hg17 mi
Weather by CustomWeather, © 2014

See weather overviewHow to use our weather pages